This demonstration page uses our WeatherBlox Daily Observations layout. Learn more.

Left ArrowRight Arrow

53.62937, 11.41316

Hourly Observations for May 9, 2016

Temp ( °F °C ) Dew Point ( °F °C ) Humidity (%) Winds ( mph kmh ) Pressure ( in mb ) Visibility ( mi km ) Precip ( " mm )
6:20 am 06:20 Mostly Sunny 52 11 46 8 82 82 E 6 9 30.12 1020 7 11 N/A
6:50 am 06:50 Mostly Sunny 54 12 46 8 77 77 E 7 11 30.15 1021 7 11 N/A
7:20 am 07:20 Mostly Sunny 57 14 48 9 72 72 E 8 13 30.15 1021 7 11 N/A
7:50 am 07:50 Mostly Sunny 59 15 48 9 68 68 E 8 13 30.15 1021 7 11 N/A
8:20 am 08:20 Mostly Sunny 61 16 48 9 63 63 E 9 15 30.15 1021 7 11 N/A
8:50 am 08:50 Mostly Sunny 64 18 50 10 60 60 E 8 13 30.15 1021 7 11 N/A
9:20 am 09:20 Mostly Sunny 66 19 50 10 56 56 E 9 15 30.15 1021 7 11 N/A
9:50 am 09:50 Mostly Sunny 68 20 52 11 56 56 E 10 17 30.15 1021 7 11 N/A
10:20 am 10:20 Mostly Sunny 72 22 50 10 47 47 E 9 15 30.15 1021 7 11 N/A
10:50 am 10:50 Mostly Sunny 72 22 48 9 44 44 E 17 28 30.15 1021 7 11 N/A
11:20 am 11:20 Mostly Sunny 73 23 48 9 41 41 E 17 28 30.15 1021 7 11 N/A
11:50 am 11:50 Mostly Sunny 73 23 48 9 41 41 E 16 26 30.15 1021 7 11 N/A
12:20 pm 12:20 Mostly Sunny 73 23 46 8 38 38 E 17 28 30.15 1021 7 11 N/A
12:50 pm 12:50 Mostly Sunny 75 24 48 9 39 39 E 16 26 30.12 1020 7 11 N/A
1:03 pm 13:03 Mostly Sunny 75 24 46 8 36 36 E 17 28 30.12 1020 7 11 N/A
1:20 pm 13:20 Mostly Sunny 75 24 46 8 36 36 ENE 18 30 30.12 1020 7 11 N/A
1:50 pm 13:50 Mostly Sunny 75 24 45 7 34 34 E 21 33 30.12 1020 7 11 N/A
2:20 pm 14:20 Mostly Sunny 75 24 46 8 36 36 E 20 31 30.12 1020 7 11 N/A
2:23 pm 14:23 Mostly Sunny 77 25 48 9 36 36 ENE 18 30 30.12 1020 7 11 N/A
2:50 pm 14:50 Mostly Sunny 77 25 46 8 34 34 ENE 17 28 30.12 1020 7 11 N/A
3:09 pm 15:09 Mostly Sunny 77 25 45 7 32 32 ENE 18 30 30.09 1019 7 11 N/A
3:20 pm 15:20 Mostly Sunny 77 25 48 9 36 36 E 18 30 30.09 1019 7 11 N/A
3:50 pm 15:50 Mostly Sunny 75 24 46 8 36 36 ENE 21 33 30.09 1019 7 11 N/A
4:20 pm 16:20 Mostly Sunny 77 25 46 8 34 34 E 18 30 30.09 1019 7 11 N/A
4:50 pm 16:50 Mostly Sunny 77 25 45 7 32 32 E 20 31 30.09 1019 7 11 N/A
5:20 pm 17:20 Mostly Sunny 75 24 46 8 36 36 E 16 26 30.06 1018 7 11 N/A
5:50 pm 17:50 Mostly Sunny 75 24 45 7 34 34 E 16 26 30.06 1018 7 11 N/A
6:20 pm 18:20 Mostly Sunny 75 24 45 7 34 34 E 17 28 30.06 1018 7 11 N/A
6:31 pm 18:31 Mostly Sunny 75 24 45 7 34 34 E 14 22 30.06 1018 7 11 N/A
6:50 pm 18:50 Mostly Sunny 73 23 48 9 41 41 E 22 35 30.06 1018 7 11 N/A

Powered by AerisWeather